Portland International Airport
KPDX : now visible

Airfield :











YOU CAN JOIN US ON...

 
LOGIN :

Register | Disclaimer

   EN    FR    IT 

 









Legend :    VFR   Marginal VFR   IFR   Intensive IFR   Very Intensive IFR
Visi :
Ceiling :
>= 8 km
>= 3000ft
5 to 8 km
1000 to 3000 ft
1500m to 5 km
500 to 1000 ft
800 to 1500m
200 to 500 ft
< 800m
< 200 ft
Symbols :   Thunderstorms  Fog  Heavy snow  Heavy precipitations  Wind > 20 kt






- Airport Elevation : 31 ft
- IATA code : PDX


KPDX - Portland International

CURRENT METAR :
  • 121653Z 31005KT 10SM FEW200 FEW250 16/08 A3011 RMK AO2 SLP196 T01610083

EXPIRED METARs :
  • 121553Z VRB04KT 10SM FEW180 SCT250 15/08 A3012 RMK AO2 SLP197 T01500083
  • 121453Z 00000KT 10SM SCT160 BKN250 13/08 A3012 RMK AO2 SLP197 T01330083 53005

TAF KPDX
Valid from the 12 at 15:00 until the 13 at 12:00 UTC


121505Z 1215/1312 VRB03KT P6SM SCT150
FM122000 31011KT P6SM SCT250
FM130800 32004KT P6SM BKN250
KZSE FIR / North America



MET'MAP, your aeronautical weather chart ! - Copyright ORBIFLY December 2007 - Disclaimer

ORBIFLY MET'MAP TEAM :

Programming & Development : Alexandra Zaïnal
Concept & original design : Baudouin d'Aumeries
Assistance for programming : Marc-Olivier Méhu
Technical & hardware support : Manuel Goepfert

Contact : metmap@orbifly.com




SOURCES & CREDITS :

   NOAA       Earth
Advisory